Location: Camerons Lookout
(40.9833°S, 175.9333°E)
Time: 08:22:06
(UTC+00:00)

Ariane Rocket - Pass Details

Date: 14 January 2026
Orbit: 755 x 764 km, 98.5° (Epoch: 16 February)

Event Time Altitude Azimuth Distance (km) Brightness Sun altitude
Rises 10:41:40 0° 166° (SSE) 3,248 7.0 -23.3°
Reaches altitude 10° 10:44:00 10° 164° (SSE) 2,315 6.1 -23.5°
Maximum altitude 10:49:07 77° 77° (ENE) 789 2.9 -23.9°
Enters shadow 10:49:43 67° 19° (NNE) 830 2.8 -23.9°
